| time (UTC) | temp F | wind direction | speed MPH | gust MPH | rain 1hr in | rain 24hr in | rain mn in | humidity % | barometer mb |
| 20260508060505 | 49 | 202 | 0.0 | 0.0 | 0.00 | 0.00 | 0.00 | 90 | 1009.7 |
| 20260508060005 | 48 | 202 | 0.0 | 0.0 | 0.00 | 0.00 | 0.00 | 90 | 1009.7 |
| 20260508055504 | 48 | 202 | 0.0 | 0.0 | 0.00 | 0.00 | 0.00 | 90 | 1009.7 |
| 20260508055004 | 48 | 202 | 0.0 | 0.0 | 0.00 | 0.00 | 0.00 | 89 | 1009.8 |
| 20260508054504 | 48 | 202 | 0.0 | 0.0 | 0.00 | 0.00 | 0.00 | 89 | 1009.8 |
| 20260508054004 | 48 | 202 | 0.0 | 0.0 | 0.00 | 0.00 | 0.00 | 89 | 1009.8 |
| 20260508053503 | 48 | 202 | 0.0 | 0.0 | 0.00 | 0.00 | 0.00 | 89 | 1009.8 |
| 20260508053004 | 48 | 202 | 0.0 | 0.0 | 0.00 | 0.00 | 0.00 | 89 | 1009.9 |
| 20260508052504 | 48 | 202 | 0.0 | 0.0 | 0.00 | 0.00 | 0.00 | 88 | 1009.9 |
| 20260508052004 | 48 | 202 | 0.0 | 0.0 | 0.00 | 0.00 | 0.00 | 89 | 1009.9 |
| 20260508051504 | 48 | 202 | 0.0 | 0.0 | 0.00 | 0.00 | 0.00 | 89 | 1009.9 |
| 20260508051005 | 48 | 202 | 0.0 | 0.0 | 0.00 | 0.00 | 0.00 | 89 | 1009.9 |
| 20260508050505 | 48 | 202 | 0.0 | 0.0 | 0.00 | 0.00 | 0.00 | 89 | 1009.9 |
| 20260508050004 | 48 | 202 | 0.0 | 0.0 | 0.00 | 0.00 | 0.00 | 89 | 1010.0 |
| 20260508045004 | 48 | 202 | 0.0 | 0.0 | 0.00 | 0.00 | 0.00 | 89 | 1009.9 |
| 20260508044504 | 48 | 202 | 0.0 | 0.0 | 0.00 | 0.00 | 0.00 | 89 | 1009.8 |
| 20260508044005 | 48 | 202 | 0.0 | 0.0 | 0.00 | 0.00 | 0.00 | 89 | 1009.6 |
| 20260508042504 | 48 | 202 | 0.0 | 0.0 | 0.00 | 0.00 | 0.00 | 89 | 1009.7 |
| 20260508042004 | 48 | 202 | 0.0 | 0.0 | 0.00 | 0.00 | 0.00 | 89 | 1009.7 |
| 20260508041505 | 48 | 202 | 0.0 | 0.0 | 0.00 | 0.00 | 0.00 | 89 | 1009.7 |
| 20260508041005 | 48 | 202 | 0.0 | 0.0 | 0.00 | 0.00 | 0.00 | 89 | 1009.7 |
| 20260508040504 | 48 | 202 | 0.0 | 0.0 | 0.00 | 0.00 | 0.00 | 89 | 1009.7 |
| 20260508040005 | 48 | 202 | 0.0 | 0.0 | 0.00 | 0.00 | 0.00 | 89 | 1009.7 |
| 20260508035005 | 49 | 225 | 0.0 | 0.0 | 0.00 | 0.00 | 0.00 | 88 | 1009.8 |
| 20260508034504 | 49 | 225 | 0.0 | 0.0 | 0.00 | 0.00 | 0.00 | 88 | 1009.8 |
| 20260508033004 | 50 | 211 | 0.0 | 0.0 | 0.00 | 0.00 | 0.00 | 88 | 1009.8 |
| 20260508031505 | 50 | 202 | 0.0 | 0.0 | 0.00 | 0.00 | 0.00 | 88 | 1009.6 |
| 20260508031004 | 50 | 218 | 0.0 | 2.0 | 0.00 | 0.00 | 0.00 | 88 | 1009.7 |
| 20260508030505 | 51 | 222 | 0.0 | 3.0 | 0.00 | 0.00 | 0.00 | 88 | 1009.7 |
| 20260508030004 | 51 | 214 | 0.0 | 3.0 | 0.00 | 0.00 | 0.00 | 88 | 1009.7 |
| 20260508025504 | 51 | 202 | 0.0 | 0.0 | 0.00 | 0.00 | 0.00 | 88 | 1009.9 |
| 20260508025004 | 51 | 202 | 0.0 | 0.0 | 0.00 | 0.00 | 0.00 | 88 | 1009.8 |
| 20260508024504 | 51 | 202 | 1.0 | 5.0 | 0.00 | 0.00 | 0.00 | 88 | 1009.8 |
| 20260508024004 | 52 | 212 | 0.0 | 3.0 | 0.00 | 0.00 | 0.00 | 89 | 1009.9 |
| 20260508023004 | 52 | 209 | 3.0 | 8.0 | 0.00 | 0.00 | 0.00 | 89 | 1009.7 |
| 20260508022504 | 52 | 212 | 3.0 | 8.0 | 0.00 | 0.00 | 0.00 | 89 | 1009.8 |
| 20260508022004 | 52 | 225 | 0.0 | 6.0 | 0.00 | 0.00 | 0.00 | 89 | 1009.8 |
| 20260508021504 | 52 | 206 | 3.0 | 6.0 | 0.00 | 0.00 | 0.00 | 89 | 1009.9 |
| 20260508021009 | 52 | 225 | 2.0 | 6.0 | 0.00 | 0.00 | 0.00 | 89 | 1009.5 |
| 20260508020504 | 52 | 216 | 0.0 | 3.0 | 0.00 | 0.00 | 0.00 | 88 | 1009.6 |
| 20260508020004 | 52 | 184 | 1.0 | 6.0 | 0.00 | 0.00 | 0.00 | 87 | 1009.6 |
| 20260508015504 | 52 | 202 | 0.0 | 0.0 | 0.00 | 0.00 | 0.00 | 87 | 1009.6 |
| 20260508015004 | 52 | 188 | 0.0 | 3.0 | 0.00 | 0.00 | 0.00 | 86 | 1009.5 |
| 20260508014504 | 52 | 200 | 0.0 | 0.0 | 0.00 | 0.00 | 0.00 | 86 | 1009.5 |
| 20260508014004 | 52 | 202 | 0.0 | 0.0 | 0.00 | 0.00 | 0.00 | 85 | 1009.3 |
| 20260508013005 | 52 | 202 | 0.0 | 0.0 | 0.00 | 0.00 | 0.00 | 83 | 1009.2 |
| 20260508012004 | 53 | 202 | 0.0 | 0.0 | 0.00 | 0.00 | 0.00 | 83 | 1009.1 |
| 20260508011504 | 53 | 202 | 0.0 | 5.0 | 0.00 | 0.00 | 0.00 | 82 | 1009.0 |
| 20260508011005 | 53 | 180 | 0.0 | 0.0 | 0.00 | 0.00 | 0.00 | 82 | 1008.9 |
| 20260508010504 | 53 | 202 | 0.0 | 0.0 | 0.00 | 0.00 | 0.00 | 81 | 1009.0 |
| 20260508010004 | 54 | 194 | 2.0 | 8.0 | 0.00 | 0.00 | 0.00 | 81 | 1009.0 |
| 20260508005003 | 54 | 196 | 1.0 | 6.0 | 0.00 | 0.00 | 0.00 | 80 | 1008.9 |
| 20260508004004 | 54 | 220 | 0.0 | 0.0 | 0.00 | 0.00 | 0.00 | 78 | 1009.0 |
| 20260508003504 | 55 | 214 | 1.0 | 9.0 | 0.00 | 0.00 | 0.00 | 76 | 1008.9 |
| 20260508003004 | 55 | 225 | 1.0 | 5.0 | 0.00 | 0.00 | 0.00 | 75 | 1008.7 |
| 20260508002504 | 55 | 217 | 1.0 | 8.0 | 0.00 | 0.00 | 0.00 | 74 | 1008.7 |
| 20260508002005 | 56 | 225 | 0.0 | 9.0 | 0.00 | 0.00 | 0.00 | 73 | 1008.6 |
| 20260508001504 | 56 | 209 | 2.0 | 7.0 | 0.00 | 0.00 | 0.00 | 71 | 1008.5 |
| 20260508001006 | 57 | 199 | 3.0 | 9.0 | 0.00 | 0.00 | 0.00 | 69 | 1008.4 |
| 20260508000505 | 57 | 202 | 0.0 | 9.0 | 0.00 | 0.00 | 0.00 | 68 | 1008.4 |
| 20260508000005 | 58 | 214 | 5.0 | 8.0 | 0.00 | 0.00 | 0.00 | 67 | 1008.4 |
| 20260507235005 | 59 | 187 | 0.0 | 8.0 | 0.00 | 0.00 | 0.00 | 64 | 1008.2 |
| 20260507234505 | 59 | 212 | 3.0 | 12.0 | 0.00 | 0.00 | 0.00 | 64 | 1008.2 |
| 20260507234005 | 60 | 193 | 1.0 | 8.0 | 0.00 | 0.00 | 0.00 | 62 | 1008.0 |
| 20260507233505 | 60 | 209 | 0.0 | 2.0 | 0.00 | 0.00 | 0.00 | 61 | 1007.9 |
| 20260507233005 | 60 | 215 | 0.0 | 0.0 | 0.00 | 0.00 | 0.00 | 60 | 1008.0 |
| 20260507232505 | 61 | 180 | 0.0 | 0.0 | 0.00 | 0.00 | 0.00 | 59 | 1007.9 |
| 20260507232005 | 61 | 180 | 0.0 | 0.0 | 0.00 | 0.00 | 0.00 | 59 | 1007.8 |
| 20260507231506 | 61 | 180 | 0.0 | 0.0 | 0.00 | 0.00 | 0.00 | 58 | 1007.8 |
| 20260507230506 | 62 | 202 | 0.0 | 6.0 | 0.00 | 0.00 | 0.00 | 56 | 1007.7 |
| 20260507225506 | 63 | 225 | 0.0 | 0.0 | 0.00 | 0.00 | 0.00 | 52 | 1007.5 |
| 20260507225005 | 63 | 320 | 0.0 | 0.0 | 0.00 | 0.00 | 0.00 | 49 | 1007.6 |
| 20260507224005 | 64 | 340 | 0.0 | 0.0 | 0.00 | 0.00 | 0.00 | 48 | 1007.5 |
| 20260507223505 | 64 | 338 | 0.0 | 0.0 | 0.00 | 0.00 | 0.00 | 48 | 1007.5 |
| 20260507222506 | 64 | 338 | 0.0 | 0.0 | 0.00 | 0.00 | 0.00 | 47 | 1007.5 |
| 20260507222005 | 65 | 338 | 0.0 | 0.0 | 0.00 | 0.00 | 0.00 | 47 | 1007.6 |
| 20260507221505 | 65 | 338 | 0.0 | 0.0 | 0.00 | 0.00 | 0.00 | 46 | 1007.7 |
| 20260507221006 | 65 | 350 | 0.0 | 3.0 | 0.00 | 0.00 | 0.00 | 45 | 1007.8 |
| 20260507220506 | 66 | 338 | 2.0 | 9.0 | 0.00 | 0.00 | 0.00 | 45 | 1007.6 |
| 20260507220004 | 67 | 338 | 1.0 | 8.0 | 0.00 | 0.00 | 0.00 | 44 | 1007.8 |
| 20260507215505 | 68 | 338 | 5.0 | 13.0 | 0.00 | 0.00 | 0.00 | 44 | 1008.0 |
| 20260507215005 | 69 | 0 | 0.0 | 0.0 | 0.00 | 0.00 | 0.00 | 45 | 1007.9 |
| 20260507214506 | 69 | 0 | 0.0 | 0.0 | 0.00 | 0.00 | 0.00 | 44 | 1007.9 |
| 20260507213505 | 69 | 338 | 0.0 | 0.0 | 0.00 | 0.00 | 0.00 | 46 | 1007.9 |
| 20260507213005 | 69 | 338 | 0.0 | 9.0 | 0.00 | 0.00 | 0.00 | 44 | 1007.9 |
| 20260507212505 | 69 | 0 | 1.0 | 5.0 | 0.00 | 0.00 | 0.00 | 44 | 1007.6 |
| 20260507212005 | 70 | 12 | 1.0 | 5.0 | 0.00 | 0.00 | 0.00 | 45 | 1007.3 |
| 20260507211005 | 70 | 338 | 0.0 | 0.0 | 0.00 | 0.00 | 0.00 | 46 | 1007.8 |
| 20260507210505 | 70 | 292 | 0.0 | 0.0 | 0.00 | 0.00 | 0.00 | 47 | 1007.7 |
| 20260507205505 | 70 | 180 | 3.0 | 12.0 | 0.00 | 0.00 | 0.00 | 47 | 1007.6 |
| 20260507204505 | 70 | 207 | 0.0 | 5.0 | 0.00 | 0.00 | 0.00 | 49 | 1007.4 |
| 20260507204005 | 69 | 338 | 0.0 | 0.0 | 0.00 | 0.00 | 0.00 | 52 | 1007.5 |
| 20260507203505 | 68 | 338 | 0.0 | 0.0 | 0.00 | 0.00 | 0.00 | 51 | 1007.5 |
| 20260507203005 | 68 | 338 | 0.0 | 0.0 | 0.00 | 0.00 | 0.00 | 49 | 1007.4 |
| 20260507202506 | 69 | 338 | 0.0 | 0.0 | 0.00 | 0.00 | 0.00 | 51 | 1007.6 |
| 20260507202005 | 69 | 338 | 0.0 | 0.0 | 0.00 | 0.00 | 0.00 | 49 | 1007.6 |
| 20260507201506 | 70 | 225 | 0.0 | 0.0 | 0.00 | 0.00 | 0.00 | 48 | 1007.7 |
| 20260507201005 | 70 | 195 | 0.0 | 0.0 | 0.00 | 0.00 | 0.00 | 49 | 1007.8 |
| 20260507200505 | 70 | 207 | 1.0 | 3.0 | 0.00 | 0.00 | 0.00 | 49 | 1007.8 |
| 20260507200004 | 70 | 90 | 0.0 | 0.0 | 0.00 | 0.00 | 0.00 | 51 | 1007.8 |
| 20260507195505 | 69 | 90 | 0.0 | 0.0 | 0.00 | 0.00 | 0.00 | 50 | 1007.7 |
| 20260507195006 | 69 | 90 | 0.0 | 0.0 | 0.00 | 0.00 | 0.00 | 49 | 1008.1 |
| 20260507194504 | 69 | 58 | 0.0 | 0.0 | 0.00 | 0.00 | 0.00 | 49 | 1008.1 |
| 20260507194006 | 70 | 34 | 0.0 | 0.0 | 0.00 | 0.00 | 0.00 | 48 | 1008.1 |
| 20260507193505 | 69 | 135 | 0.0 | 0.0 | 0.00 | 0.00 | 0.00 | 49 | 1008.0 |
| 20260507193005 | 70 | 135 | 0.0 | 0.0 | 0.00 | 0.00 | 0.00 | 49 | 1008.3 |
| 20260507192505 | 70 | 153 | 0.0 | 5.0 | 0.00 | 0.00 | 0.00 | 49 | 1008.3 |
| 20260507192006 | 70 | 211 | 1.0 | 5.0 | 0.00 | 0.00 | 0.00 | 50 | 1008.3 |
| 20260507191505 | 69 | 158 | 0.0 | 0.0 | 0.00 | 0.00 | 0.00 | 50 | 1008.3 |
| 20260507191005 | 69 | 175 | 0.0 | 0.0 | 0.00 | 0.00 | 0.00 | 49 | 1008.5 |
| 20260507190506 | 70 | 45 | 0.0 | 0.0 | 0.00 | 0.00 | 0.00 | 48 | 1008.6 |
| 20260507185505 | 70 | 34 | 0.0 | 0.0 | 0.00 | 0.00 | 0.00 | 48 | 1009.0 |
| 20260507185006 | 72 | 22 | 0.0 | 0.0 | 0.00 | 0.00 | 0.00 | 46 | 1009.3 |
| 20260507184005 | 74 | 315 | 0.0 | 0.0 | 0.00 | 0.00 | 0.00 | 47 | 1009.1 |
| 20260507183505 | 75 | 348 | 0.0 | 0.0 | 0.00 | 0.00 | 0.00 | 46 | 1009.1 |
| 20260507183005 | 75 | 346 | 0.0 | 7.0 | 0.00 | 0.00 | 0.00 | 46 | 1009.2 |
| 20260507182505 | 76 | 338 | 0.0 | 0.0 | 0.00 | 0.00 | 0.00 | 47 | 1009.1 |
| 20260507182005 | 76 | 338 | 0.0 | 7.0 | 0.00 | 0.00 | 0.00 | 47 | 1009.0 |
| 20260507181505 | 76 | 349 | 1.0 | 6.0 | 0.00 | 0.00 | 0.00 | 48 | 1009.1 |
| 20260507181006 | 75 | 22 | 0.0 | 0.0 | 0.00 | 0.00 | 0.00 | 48 | 1009.1 |
| 20260507180505 | 74 | 1 | 0.0 | 0.0 | 0.00 | 0.00 | 0.00 | 49 | 1009.2 |
| 20260507175504 | 72 | 338 | 0.0 | 0.0 | 0.00 | 0.00 | 0.00 | 49 | 1009.6 |
| 20260507175005 | 71 | 359 | 1.0 | 7.0 | 0.00 | 0.00 | 0.00 | 50 | 1009.5 |
| 20260507174505 | 71 | 338 | 0.0 | 0.0 | 0.00 | 0.00 | 0.00 | 50 | 1009.4 |
| 20260507174005 | 70 | 357 | 0.0 | 0.0 | 0.00 | 0.00 | 0.00 | 52 | 1009.4 |
| 20260507173505 | 69 | 334 | 0.0 | 0.0 | 0.00 | 0.00 | 0.00 | 52 | 1009.6 |
| 20260507173005 | 68 | 338 | 1.0 | 5.0 | 0.00 | 0.00 | 0.00 | 50 | 1009.8 |
| 20260507172005 | 70 | 318 | 0.0 | 0.0 | 0.00 | 0.00 | 0.00 | 49 | 1009.9 |
| 20260507171005 | 72 | 349 | 1.0 | 8.0 | 0.00 | 0.00 | 0.00 | 49 | 1010.0 |
| 20260507170505 | 74 | 59 | 2.0 | 8.0 | 0.00 | 0.00 | 0.00 | 48 | 1009.8 |
| 20260507170005 | 74 | 3 | 0.0 | 0.0 | 0.00 | 0.00 | 0.00 | 52 | 1009.9 |
| 20260507165505 | 73 | 0 | 0.0 | 0.0 | 0.00 | 0.00 | 0.00 | 52 | 1009.9 |
| 20260507165004 | 74 | 0 | 0.0 | 0.0 | 0.00 | 0.00 | 0.00 | 51 | 1010.2 |
| 20260507164505 | 74 | 338 | 0.0 | 0.0 | 0.00 | 0.00 | 0.00 | 53 | 1010.3 |
| 20260507163004 | 72 | 338 | 0.0 | 0.0 | 0.00 | 0.00 | 0.00 | 57 | 1010.4 |
| 20260507162505 | 70 | 8 | 0.0 | 6.0 | 0.00 | 0.00 | 0.00 | 59 | 1010.5 |
| 20260507161505 | 68 | 348 | 1.0 | 7.0 | 0.00 | 0.00 | 0.00 | 61 | 1010.7 |
| 20260507161005 | 68 | 45 | 0.0 | 0.0 | 0.00 | 0.00 | 0.00 | 60 | 1010.7 |
| 20260507160504 | 68 | 45 | 0.0 | 0.0 | 0.00 | 0.00 | 0.00 | 62 | 1010.6 |
| 20260507160005 | 67 | 0 | 0.0 | 0.0 | 0.00 | 0.00 | 0.00 | 63 | 1010.6 |
| 20260507155505 | 67 | 0 | 0.0 | 6.0 | 0.00 | 0.00 | 0.00 | 63 | 1010.6 |
| 20260507154505 | 68 | 338 | 0.0 | 6.0 | 0.00 | 0.00 | 0.00 | 62 | 1010.8 |
| 20260507154006 | 69 | 338 | 1.0 | 6.0 | 0.00 | 0.00 | 0.00 | 63 | 1011.0 |
| 20260507152004 | 68 | 338 | 0.0 | 0.0 | 0.00 | 0.00 | 0.00 | 66 | 1011.0 |
| 20260507151505 | 67 | 338 | 0.0 | 0.0 | 0.00 | 0.00 | 0.00 | 66 | 1011.0 |
| 20260507151005 | 67 | 338 | 2.0 | 8.0 | 0.00 | 0.00 | 0.00 | 66 | 1011.0 |
| 20260507150505 | 67 | 339 | 3.0 | 9.0 | 0.00 | 0.00 | 0.00 | 67 | 1011.2 |
| 20260507150005 | 66 | 339 | 1.0 | 7.0 | 0.00 | 0.00 | 0.00 | 69 | 1011.1 |
| 20260507145504 | 65 | 338 | 0.0 | 0.0 | 0.00 | 0.00 | 0.00 | 69 | 1011.3 |
| 20260507144505 | 65 | 338 | 1.0 | 6.0 | 0.00 | 0.00 | 0.00 | 69 | 1011.1 |
| 20260507143504 | 66 | 356 | 1.0 | 7.0 | 0.00 | 0.00 | 0.00 | 70 | 1011.2 |
| 20260507143005 | 66 | 357 | 4.0 | 8.0 | 0.00 | 0.00 | 0.00 | 71 | 1011.3 |
| 20260507141505 | 64 | 355 | 0.0 | 0.0 | 0.00 | 0.00 | 0.00 | 76 | 1011.5 |
| 20260507141006 | 62 | 338 | 0.0 | 0.0 | 0.00 | 0.00 | 0.00 | 76 | 1011.3 |
| 20260507140505 | 62 | 338 | 0.0 | 8.0 | 0.00 | 0.00 | 0.00 | 76 | 1011.6 |
| 20260507140005 | 62 | 338 | 1.0 | 7.0 | 0.00 | 0.00 | 0.00 | 77 | 1011.7 |
| 20260507135504 | 62 | 357 | 2.0 | 10.0 | 0.00 | 0.00 | 0.00 | 78 | 1011.7 |
| 20260507135005 | 62 | 0 | 0.0 | 2.0 | 0.00 | 0.00 | 0.00 | 80 | 1011.8 |
| 20260507134505 | 61 | 0 | 0.0 | 0.0 | 0.00 | 0.00 | 0.00 | 80 | 1011.8 |
| 20260507134005 | 61 | 343 | 0.0 | 7.0 | 0.00 | 0.00 | 0.00 | 82 | 1011.8 |
| 20260507133005 | 59 | 338 | 0.0 | 6.0 | 0.00 | 0.00 | 0.00 | 84 | 1011.8 |
| 20260507132004 | 58 | 338 | 1.0 | 6.0 | 0.00 | 0.00 | 0.00 | 85 | 1011.7 |
| 20260507131504 | 58 | 0 | 0.0 | 2.0 | 0.00 | 0.00 | 0.00 | 85 | 1011.6 |
| 20260507130505 | 58 | 338 | 0.0 | 0.0 | 0.00 | 0.00 | 0.00 | 86 | 1011.5 |
| 20260507130005 | 58 | 338 | 0.0 | 0.0 | 0.00 | 0.00 | 0.00 | 86 | 1011.6 |
| 20260507125004 | 58 | 338 | 0.0 | 0.0 | 0.00 | 0.00 | 0.00 | 87 | 1011.6 |
| 20260507124504 | 58 | 338 | 0.0 | 0.0 | 0.00 | 0.00 | 0.00 | 88 | 1011.6 |
| 20260507123504 | 57 | 338 | 0.0 | 0.0 | 0.00 | 0.00 | 0.00 | 90 | 1011.6 |
| 20260507122505 | 56 | 338 | 0.0 | 0.0 | 0.00 | 0.00 | 0.00 | 91 | 1011.7 |
| 20260507122006 | 55 | 338 | 0.0 | 0.0 | 0.00 | 0.00 | 0.00 | 91 | 1011.5 |
| 20260507121505 | 55 | 338 | 0.0 | 0.0 | 0.00 | 0.00 | 0.00 | 91 | 1011.4 |
| 20260507121005 | 55 | 338 | 0.0 | 0.0 | 0.00 | 0.00 | 0.00 | 92 | 1011.6 |
| 20260507120505 | 55 | 338 | 0.0 | 3.0 | 0.00 | 0.00 | 0.00 | 92 | 1011.4 |
| 20260507120005 | 55 | 0 | 0.0 | 0.0 | 0.00 | 0.00 | 0.00 | 92 | 1011.5 |
| 20260507115508 | 55 | 338 | 0.0 | 0.0 | 0.00 | 0.00 | 0.00 | 93 | 1011.4 |
| 20260507115005 | 55 | 338 | 0.0 | 0.0 | 0.00 | 0.00 | 0.00 | 93 | 1011.4 |
| 20260507114504 | 54 | 338 | 0.0 | 0.0 | 0.00 | 0.00 | 0.00 | 93 | 1011.4 |
| 20260507114005 | 54 | 338 | 0.0 | 0.0 | 0.00 | 0.00 | 0.00 | 94 | 1011.3 |
| 20260507113505 | 53 | 338 | 1.0 | 3.0 | 0.00 | 0.00 | 0.00 | 94 | 1011.3 |
| 20260507113006 | 53 | 0 | 0.0 | 0.0 | 0.00 | 0.00 | 0.00 | 95 | 1011.3 |
| 20260507112504 | 53 | 338 | 0.0 | 0.0 | 0.00 | 0.00 | 0.00 | 95 | 1011.4 |
| 20260507111506 | 52 | 338 | 0.0 | 0.0 | 0.00 | 0.00 | 0.00 | 95 | 1011.1 |
| 20260507111005 | 52 | 338 | 0.0 | 0.0 | 0.00 | 0.00 | 0.00 | 96 | 1011.2 |
| 20260507110505 | 52 | 338 | 0.0 | 0.0 | 0.00 | 0.00 | 0.00 | 96 | 1011.2 |
| 20260507110005 | 52 | 338 | 0.0 | 0.0 | 0.00 | 0.00 | 0.00 | 96 | 1011.1 |
| 20260507105005 | 51 | 338 | 0.0 | 0.0 | 0.00 | 0.00 | 0.00 | 96 | 1010.8 |
| 20260507104005 | 51 | 338 | 0.0 | 0.0 | 0.00 | 0.00 | 0.00 | 96 | 1010.8 |
| 20260507103504 | 51 | 338 | 0.0 | 0.0 | 0.00 | 0.00 | 0.00 | 96 | 1010.7 |
| 20260507103004 | 50 | 338 | 0.0 | 0.0 | 0.00 | 0.00 | 0.00 | 96 | 1011.0 |
| 20260507102505 | 50 | 338 | 0.0 | 0.0 | 0.00 | 0.00 | 0.00 | 96 | 1010.9 |
| 20260507101506 | 50 | 338 | 0.0 | 0.0 | 0.00 | 0.00 | 0.00 | 96 | 1010.7 |
| 20260507101004 | 50 | 338 | 0.0 | 0.0 | 0.00 | 0.00 | 0.00 | 96 | 1010.6 |
| 20260507100505 | 50 | 338 | 0.0 | 0.0 | 0.00 | 0.00 | 0.00 | 96 | 1010.6 |
| 20260507100005 | 50 | 338 | 0.0 | 0.0 | 0.00 | 0.00 | 0.00 | 96 | 1010.6 |
| 20260507095504 | 50 | 349 | 0.0 | 0.0 | 0.00 | 0.00 | 0.00 | 96 | 1010.6 |
| 20260507094005 | 50 | 338 | 0.0 | 0.0 | 0.00 | 0.00 | 0.00 | 96 | 1010.3 |
| 20260507093504 | 50 | 0 | 0.0 | 2.0 | 0.00 | 0.00 | 0.00 | 96 | 1010.4 |
| 20260507092504 | 50 | 0 | 0.0 | 0.0 | 0.00 | 0.00 | 0.00 | 96 | 1010.3 |
| 20260507092004 | 50 | 0 | 0.0 | 3.0 | 0.00 | 0.00 | 0.00 | 96 | 1010.4 |
| 20260507091504 | 50 | 0 | 0.0 | 0.0 | 0.00 | 0.00 | 0.00 | 96 | 1010.3 |
| 20260507091005 | 50 | 0 | 0.0 | 1.0 | 0.00 | 0.00 | 0.00 | 96 | 1010.4 |
| 20260507090006 | 50 | 338 | 2.0 | 6.0 | 0.00 | 0.00 | 0.00 | 96 | 1010.0 |
| 20260507085505 | 50 | 344 | 1.0 | 7.0 | 0.00 | 0.00 | 0.00 | 96 | 1009.8 |
| 20260507085004 | 50 | 0 | 1.0 | 5.0 | 0.00 | 0.00 | 0.00 | 96 | 1010.1 |
| 20260507084505 | 50 | 0 | 3.0 | 7.0 | 0.00 | 0.00 | 0.00 | 96 | 1010.1 |
| 20260507084004 | 50 | 0 | 3.0 | 9.0 | 0.00 | 0.00 | 0.00 | 96 | 1009.9 |
| 20260507083505 | 50 | 0 | 1.0 | 7.0 | 0.00 | 0.00 | 0.00 | 96 | 1009.7 |
| 20260507083005 | 50 | 338 | 3.0 | 6.0 | 0.00 | 0.00 | 0.00 | 96 | 1009.9 |
| 20260507082504 | 50 | 343 | 3.0 | 8.0 | 0.00 | 0.00 | 0.00 | 96 | 1009.9 |
| 20260507082004 | 50 | 338 | 1.0 | 7.0 | 0.00 | 0.00 | 0.00 | 96 | 1009.8 |
| 20260507081504 | 50 | 338 | 2.0 | 8.0 | 0.00 | 0.00 | 0.00 | 96 | 1009.8 |
| 20260507081005 | 50 | 339 | 2.0 | 9.0 | 0.00 | 0.00 | 0.00 | 96 | 1009.9 |
| 20260507080504 | 51 | 338 | 2.0 | 12.0 | 0.00 | 0.00 | 0.00 | 97 | 1009.9 |
| 20260507080005 | 51 | 354 | 2.0 | 12.0 | 0.00 | 0.00 | 0.00 | 97 | 1009.8 |
| 20260507075004 | 51 | 339 | 2.0 | 9.0 | 0.00 | 0.00 | 0.00 | 97 | 1009.8 |
| 20260507074505 | 51 | 348 | 4.0 | 12.0 | 0.00 | 0.00 | 0.00 | 97 | 1009.8 |
| 20260507073004 | 52 | 338 | 9.0 | 12.0 | 0.00 | 0.00 | 0.00 | 97 | 1009.6 |
| 20260507072505 | 52 | 353 | 3.0 | 10.0 | 0.00 | 0.00 | 0.00 | 96 | 1009.4 |
| 20260507072005 | 52 | 351 | 8.0 | 16.0 | 0.00 | 0.00 | 0.00 | 96 | 1009.3 |
| 20260507071504 | 53 | 344 | 5.0 | 12.0 | 0.00 | 0.00 | 0.00 | 96 | 1009.1 |
| 20260507071004 | 53 | 346 | 3.0 | 12.0 | 0.00 | 0.00 | 0.00 | 96 | 1009.4 |
| 20260507070504 | 53 | 338 | 3.0 | 8.0 | 0.00 | 0.00 | 0.00 | 95 | 1009.5 |
| 20260507070009 | 53 | 0 | 2.0 | 9.0 | 0.00 | 0.00 | 0.00 | 95 | 1009.5 |
| 20260507065004 | 54 | 338 | 5.0 | 12.0 | 0.00 | 0.00 | 0.00 | 95 | 1009.6 |
| 20260507064504 | 54 | 338 | 0.0 | 3.0 | 0.00 | 0.00 | 0.00 | 94 | 1009.5 |
| 20260507064005 | 55 | 22 | 3.0 | 7.0 | 0.00 | 0.00 | 0.00 | 94 | 1009.1 |
| 20260507063505 | 55 | 345 | 2.0 | 10.0 | 0.00 | 0.00 | 0.00 | 94 | 1009.2 |
| 20260507062504 | 56 | 0 | 0.0 | 7.0 | 0.00 | 0.00 | 0.00 | 92 | 1010.1 |
| 20260507062004 | 57 | 346 | 6.0 | 14.0 | 0.00 | 0.00 | 0.00 | 92 | 1009.1 |
| 20260507061505 | 58 | 323 | 6.0 | 18.0 | 0.00 | 0.00 | 0.00 | 92 | 1008.8 |
| 20260507061005 | 58 | 338 | 6.0 | 8.0 | 0.00 | 0.00 | 0.00 | 91 | 1008.8 |